• MPC Preparation (Info)

  • MPEC 1995-H01 : 1995 HM

    The following Minor Planet Electronic Circular may be linked-to from your own Web pages, but must not otherwise be redistributed electronically.

    A form allowing access to any MPEC is at the bottom of this page.


    Read MPEC 1995-G13 Read MPEC 1995-H02


    M.P.E.C. 1995-H01                                Issued 1995 Apr. 29, 16:41 UT
    
         The Minor Planet Electronic Circulars contain information on unusual
             minor planets and routine data on comets.  They are published
       on behalf of Commission 20 of the International Astronomical Union by the
              Minor Planet Center, Smithsonian Astrophysical Observatory,
                              Cambridge, MA 02138, U.S.A.
    
                 BMARSDEN@CFA.HARVARD.EDU or GWILLIAMS@CFA.HARVARD.EDU
    
                                        1995 HM
    
    Observations:
         J95H00M* C1995 04 26.22562 14 20 56.15 -09 18 56.8          20.4 V      691
         J95H00M  C1995 04 26.24720 14 20 55.17 -09 19 21.1          19.4 V      691
         J95H00M  C1995 04 26.26878 14 20 54.23 -09 19 45.0          20.2 V      691
         J95H00M  C1995 04 28.23925 14 19 58.93 -09 57 01.8          19.6 V      691
         J95H00M  C1995 04 28.25301 14 19 58.35 -09 57 19.0          19.6 V      691
         J95H00M  C1995 04 28.26727 14 19 57.68 -09 57 36.0          19.6 V      691
    
    Observer details:
    691 Steward Observatory, Kitt Peak.  Observers R. Jedicke, D. Rabinowitz.
        0.9-m Spacewatch telescope.
    
    Orbital elements:
    1995 HM
    Epoch 1995 Apr. 13.0 TT = JDT 2449820.5                 Marsden
    M 327.49546              (2000.0)            P               Q
    n   0.56538754     Peri.  208.87998     -0.27128815     +0.96126287
    a   1.4484557      Node    45.42709     -0.86940686     -0.22300455
    e   0.2156397      Incl.    3.92399     -0.41295817     -0.16199590
    P   1.74           H    23.0          G   0.15
    From 6 observations 1995 Apr. 26-28.
    
    Ephemeris:
    1995 HM                  a,e,i = 1.45, 0.22, 4                   q = 1.1361
    Date    TT    R. A. (2000) Decl.     Delta      r     Elong.  Phase     V
    1995 04 23    14 22.26   -08 22.8    0.184    1.189   173.5     5.5    20.2
    1995 04 28    14 20.08   -09 51.8    0.172    1.179   175.9     3.5    19.9
    1995 05 03    14 17.56   -11 36.9    0.162    1.170   173.5     5.6    19.8
    1995 05 08    14 15.10   -13 37.9    0.155    1.161   169.1     9.5    19.9
    1995 05 13    14 13.13   -15 53.7    0.149    1.154   164.4    13.6    20.0
    1995 05 18    14 12.04   -18 21.5    0.145    1.148   159.8    17.7    20.0
    1995 05 23    14 12.16   -20 57.8    0.143    1.144   155.4    21.6    20.1
    1995 05 28    14 13.85   -23 38.5    0.142    1.140   151.4    25.2    20.2
    1995 06 02    14 17.47   -26 19.4    0.143    1.137   147.8    28.4    20.3
    1995 06 07    14 23.24   -28 56.3    0.145    1.136   144.6    31.1    20.4
    1995 06 12    14 31.27   -31 25.5    0.149    1.136   142.0    33.4    20.5
    1995 06 17    14 41.49   -33 43.2    0.154    1.138   139.8    35.2    20.7
    1995 06 22    14 53.78   -35 46.0    0.160    1.140   137.9    36.7    20.8
    1995 06 27    15 08.01   -37 31.3    0.167    1.144   136.4    37.8    20.9
    1995 07 02    15 23.97   -38 57.5    0.176    1.148   135.2    38.6    21.1
    1995 07 07    15 41.35   -40 03.7    0.186    1.154   134.3    39.1    21.2
    1995 07 12    15 59.75   -40 49.7    0.198    1.161   133.4    39.5    21.4
    
                           (Last issue was M.P.E.C. 1995-G13)
    
    Brian G. Marsden                                              M.P.E.C. 1995-H01
    

    Read MPEC 1995-G13 Read MPEC 1995-H02


    MPEC number:

    Enter an MPEC number in one of the following forms:

    • 1997-B01 (the full form)
    • J97B01 (the packed version of the full form)
    • B01 (the abbreviated form)